Вернуться в каталог

FENGYUN 1C DEB

АктивенSSO
NORAD 32205·DEBRIS·🇨🇳 China

Запущен May 10, 1999 с Taiyuan Satellite Launch Center

Loading…

Ближайшие Пролёты (ближайшие 24 часа)

TLE

УстаревающийSource: Space-Track

Эпоха: Sep 7, 2026, 19:19 UTC

1 32205U 99025CVB 26250.80555383  .00000145  00000-0  98764-4 0  9997
2 32205  98.6841 252.0039 0009908 238.8736 296.6727 14.14065800983002

Отслеживайте FENGYUN 1C DEB в реальном времени с AllMySat

Download on the App Store